Tracking 29892 objects as of 21-Nov-2024
HD Live streaming from Space Station
objects crossing your sky now

STARLINK-1876

Track STARLINK-1876 now!
10-day predictions
STARLINK-1876 is classified as:


NORAD ID: 47161
Int'l Code: 2020-088AR
Perigee: 553.5 km
Apogee: 555.0 km
Inclination: 53.1 °
Period: 95.6 minutes
Semi major axis: 6925 km
RCS: Unknown
Launch date: November 25, 2020
Source: United States (US)
Launch site: AIR FORCE EASTERN TEST RANGE (AFETR)
Your satellite tracking list
Your tracking list is empty




NASA's NSSDC Master Catalog

Two Line Element Set (TLE):
1 47161U 20088AR  24325.85856315  .00021789  00000-0  14762-2 0  9993
2 47161  53.0544 258.7267 0001062  68.6488 291.4614 15.06424323220560
Source of the keplerian elements: AFSPC